Location: Sternwarte Stuttgart
(48.7670°N, 9.1830°E)
Time: 02:59:10
(UTC+01:00)

Aureole 1 Rocket - Visible Passes

Search period start: 18 November 2019 00:00
Search period end: 28 November 2019 00:00
Orbit: 380 x 1382 km, 73.9° (Epoch: 17 November)

Date Brightness Start Highest point End Pass type
(mag) Time Alt. Az. Time Alt. Az. Time Alt. Az.
21 Nov 5.7 05:50:49 10° NE 05:51:44 11° NE 05:52:44 10° ENE visible
22 Nov 5.5 05:46:51 10° NNE 05:48:38 13° NE 05:50:35 10° E visible
23 Nov 5.4 05:43:11 10° NNE 05:45:30 15° NE 05:48:07 10° E visible
24 Nov 5.4 05:39:39 10° NNE 05:42:21 18° ENE 05:45:30 10° E visible
25 Nov 5.3 05:36:10 10° N 05:39:12 21° ENE 05:42:49 10° ESE visible
26 Nov 5.1 05:32:44 10° N 05:36:02 25° ENE 05:40:03 10° ESE visible
27 Nov 4.9 05:29:46 13° N 05:32:52 29° ENE 05:37:16 10° ESE visible
